Regional Weather Roundup
Issued by NWS

Home | Current Version | Previous Version | Graphics & Text | Print | Product List | Glossary On
Versions: 1 2 3 4 5 6 7 8 9 10 11 12 13 14 15 16 17 18 19 20 21 22 23 24 25 26 27 28 29 30 31 32 33 34 35 36 37 38 39 40 41 42 43 44 45 46 47 48 49 50
000
ASUS45 KSLC 230310
RWRUT

UTAH REGIONAL WEATHER ROUNDUP
NATIONAL WEATHER SERVICE SALT LAKE CITY UT
900 PM MDT MON SEP 22 2014

UTZ001>011-023>025-230400-

NORTHERN UTAH

CITY           SKY/WX    TMP DP  RH WIND       PRES   REMARKS
HILL AFB       CLOUDY    68  50  52 E3        30.14R
LOGAN          CLOUDY    67  54  63 E5        30.11S
OGDEN          CLOUDY    69  53  56 SE3       30.11S
PROVO AIRPORT  PTCLDY    64  55  72 VRB3      30.13S
SALT LAKE CITY CLOUDY    69  57  65 CALM      30.10R
VERNAL         CLOUDY    63  55  75 CALM      30.17R
WENDOVER       MOCLDY    68  54  60 W5        30.10S
HEBER CITY     CLOUDY    61  50  67 N3        30.19R
WEST JORDAN    CLOUDY    68  54  60 W3        30.13S

$$

UTZ012>022-026-027-230400-

SOUTHERN UTAH

CITY           SKY/WX    TMP DP  RH WIND       PRES   REMARKS
BRYCE CANYON   CLEAR     52  40  63 W7        30.34R
CEDAR CITY     CLEAR     64  40  41 S3        30.20R
MILFORD        CLEAR     65  52  62 S7        30.14R
MOAB/CYNLANDS  PTCLDY    67  56  67 SW3       30.09S
PRICE          MOCLDY    63  54  72 N8        30.21R
ST GEORGE      CLOUDY    82  41  23 W5        30.03R
KANAB            N/A     68  43  40 N8        30.18R

$$

REGIONAL REPORTS     COLORADO/ARIZONA

CITY           SKY/WX    TMP DP  RH WIND       PRES   REMARKS
CRAIG, CO      MOCLDY    57  47  69 NW6       30.23R
GRAND JUNCTION MOCLDY    66  52  60 NE8       30.14R
RIFLE          MOCLDY    63  52  67 SW5       30.20R
MONTROSE       PTCLDY    62  55  77 SE6       30.23R
CORTEZ         CLEAR     59  50  72 NE7       30.22R
PAGE, AZ       CLEAR     77  43  29 CALM      30.10R
GRAND CANYON   CLEAR     54  44  69 CALM      30.28R
KINGMAN        CLEAR     75  36  24 SW12      30.06R
FLAGSTAFF      CLEAR     58  47  66 CALM      30.32R

$$

REGIONAL REPORTS    NEVADA/IDAHO/WYOMING

CITY           SKY/WX    TMP DP  RH WIND       PRES   REMARKS
LAS VEGAS, NV  CLEAR     90  38  16 S6        29.90R
ELY            CLEAR     59  45  59 S12       30.22R
ELKO           CLEAR     63  42  46 W3        30.12R
POCATELLO, ID  CLEAR     59  53  80 S8        30.11S
BURLEY         PTCLDY    60  53  77 SE3       30.08R
EVANSTON, WY   CLOUDY    57  43  59 W8        30.27R
ROCK SPRINGS   MOCLDY    56  44  64 NW6       30.24R

$$



USA.gov is the U.S. government's official web portal to all federal, state and local government web resources and services.